Regional Weather Roundup
Issued by NWS Cleveland, OH

Home | Current Version | Previous Version | Text Only | Print | Product List | Glossary Off
Versions: 1 2 3 4 5 6 7 8 9 10 11 12 13 14 15 16 17 18 19 20 21 22 23 24 25 26 27 28 29 30 31 32 33 34 35 36 37 38 39 40 41 42 43 44 45 46 47 48 49 50

993
ASUS41 KCLE 210010
RWRCLE
OHIO REGIONAL WEATHER ROUNDUP
NATIONAL WEATHER SERVICE CLEVELAND, OH
800 PM EDT SUN MAY 20 2018

NOTE: "FAIR" INDICATES FEW OR NO CLOUDS BELOW 12,000 FEET WITH NO
SIGNIFICANT WEATHER AND/OR OBSTRUCTIONS TO VISIBILITY.

OHZ001>008-015>018-024>027-034-035-043-044-210100-
   NORTHWEST OHIO

CITY           SKY/WX    TMP DP  RH WIND       PRES   REMARKS
DEFIANCE       MOCLDY    66  60  81 E10       30.13S
FINDLAY        FAIR      67  57  70 E8        30.13R
TOLEDO EXPRESS CLOUDY    63  60  90 E7        30.15R
TOLEDO EXEC    CLOUDY    62  55  77 E7        30.17R
LIMA           FAIR      68  59  73 NE9       30.12R
$$

OHZ009>014-019>023-028>033-038-089-210100-
   NORTHEAST OHIO

CITY           SKY/WX    TMP DP  RH WIND       PRES   REMARKS
CLE-HOPKINS    FAIR      58  52  80 N9        30.18R
CLE-LAKEFRONT  FAIR      57  51  80 N6        30.16R
CUY CO. ARPT   MOCLDY    59  54  82 N9        30.16S
LORAIN-ELYRIA  FAIR      59  48  67 NE14      30.17R
ASHTABULA      FAIR      58  53  84 N6        30.16F
AKRON-CANTON   FAIR      69  55  60 N5        30.14R
WOOSTER        FAIR      66  57  72 NW5       30.15R
MANSFIELD      MOCLDY    65  57  75 N6        30.15S
YOUNGSTOWN     MOCLDY    64  55  72 N6        30.13S
$$

OHZ042-051>053-060>062-070>072-077>081-210100-
  SOUTHWEST OHIO

CITY           SKY/WX    TMP DP  RH WIND       PRES   REMARKS
CINC-COVINGTON LGT RAIN  75  65  70 CALM      30.07F
CINC-LUNKEN    FAIR      74  67  78 NE7       30.09R
HAMILTON       FAIR      72  28  19 E3        30.08S
DAYTON         MOCLDY    75  64  68 NE7       30.09F
WRIGHT-PAT AFB PTCLDY    77  63  62 N6        30.08F
DAYTON GENERAL FAIR      76  66  71 E5        30.07F
WILMINGTON     MOCLDY    74  68  81 NE9       30.08S
$$

OHZ036-037-039>041-045>050-054>059-063>069-073>076-082>088-210100-
  CENTRAL AND SOUTHEAST OHIO

CITY           SKY/WX    TMP DP  RH WIND       PRES   REMARKS
COLUMBUS       MOCLDY    74  61  63 N12       30.10R
OSU AIRPORT    FAIR      72  61  68 N8        30.11R
BOLTON FIELD   NOT AVBL
RICKENBACK AFB FAIR      74  60  61 MISG      30.09R
NEWARK         FAIR      73  61  65 VRB7      30.11R
MARION         FAIR      66  57  72 NE9       30.14S
LANCASTER      FAIR      75  63  66 N8        30.11R
ZANESVILLE     FAIR      73  61  65 N8        30.11R
NEW PHILLY     NOT AVBL
$$




USA.gov is the U.S. government's official web portal to all federal, state and local government web resources and services.